sat.trackr.live / text

‹ back to catalog

STARLINK-34232

NORAD 65019 · 2025-161E

PAYLOAD ACTIVE UNKNOWN

§ Identity

Operator
Country
US
Launch date
2025-07-30
Launch site
AFWTR
Launch vehicle
Mass (kg)
RCS (m²)

Purposes: comms

External: N2YO · Heavens-Above · Gunter

§ Orbital elements

Epoch: 2026-09-19T22:57:17.831232Z

Period
93.85 min
Inclination
53.1576°
Eccentricity
0.0001995
Mean motion
15.34384241 rev/d
Perigee alt
461.4 km
Apogee alt
464.1 km
Semi-major
6,840.9 km
B*
2.1041e-4
RAAN
110.3887°
Arg perigee
78.5138°
Mean anomaly
281.6088°
Rev number
6,520

§ Raw data

STARLINK-342321 65019U 25161E   26262.95645638  .00006736  00000+0  21041-3 0  99922 65019  53.1576 110.3887 0001995  78.5138 281.6088 15.34384241 65205

JSON: /api/v1/satellites/65019 · /tle

For live sub-satellite position, see the globe view (requires WebGL).

§ Visibility from observer

Set your observer location to see the next 7 days of passes ≥ 10°. The values pass through the URL so the page stays shareable.

No JS? Fill the form by hand. The geolocation button needs JavaScript.